sat.trackr.live / text

‹ back to catalog

STARLINK-5477

NORAD 55659 · 2023-021AH

PAYLOAD ACTIVE UNKNOWN

§ Identity

Operator
Country
US
Launch date
2023-02-17
Launch site
AFWTR
Launch vehicle
Mass (kg)
RCS (m²)

Purposes: comms

External: N2YO · Heavens-Above · Gunter

§ Orbital elements

Epoch: 2026-05-24T22:42:22.125888Z

Period
96.11 min
Inclination
69.9989°
Eccentricity
0.0002698
Mean motion
14.98331544 rev/d
Perigee alt
570.2 km
Apogee alt
573.9 km
Semi-major
6,950.2 km
B*
-8.0268e-6
RAAN
332.3212°
Arg perigee
264.7717°
Mean anomaly
95.3134°
Rev number
18,069

§ Raw data

STARLINK-54771 55659U 23021AH  26144.94608942 -.00000189  00000+0 -80268-5 0  99952 55659  69.9989 332.3212 0002698 264.7717  95.3134 14.98331544180698

JSON: /api/v1/satellites/55659 · /tle

For live sub-satellite position, see the globe view (requires WebGL).

§ Visibility from observer

Set your observer location to see the next 7 days of passes ≥ 10°. The values pass through the URL so the page stays shareable.

No JS? Fill the form by hand. The geolocation button needs JavaScript.